TimeCST,TemperatureF,Dew PointF,Humidity,Sea Level PressureIn,VisibilityMPH,Wind Direction,Wind SpeedMPH,Gust SpeedMPH,PrecipitationIn,Events,Conditions,WindDirDegrees,DateUTC
12:53 AM,27.0,23.0,85,30.28,8.0,SSE,11.5,-,N/A,,Overcast,160,2013-02-09 06:53:00
1:53 AM,27.0,23.0,85,30.28,9.0,SSE,10.4,-,N/A,,Overcast,160,2013-02-09 07:53:00
2:53 AM,27.0,24.1,89,30.27,9.0,SSE,10.4,-,N/A,,Overcast,150,2013-02-09 08:53:00
3:53 AM,27.0,23.0,85,30.25,9.0,SSE,16.1,-,N/A,,Overcast,160,2013-02-09 09:53:00
4:53 AM,27.0,23.0,85,30.22,10.0,SSE,15.0,23.0,N/A,,Overcast,150,2013-02-09 10:53:00
5:53 AM,27.0,23.0,85,30.21,10.0,SSE,11.5,24.2,N/A,,Overcast,150,2013-02-09 11:53:00
6:53 AM,27.0,24.1,89,30.20,9.0,SSE,12.7,-,N/A,,Overcast,150,2013-02-09 12:53:00
7:36 AM,28.4,24.8,86,30.16,7.0,SE,12.7,20.7,N/A,,Overcast,140,2013-02-09 13:36:00
7:53 AM,28.0,25.0,88,30.19,5.0,SE,12.7,-,N/A,,Overcast,140,2013-02-09 13:53:00
8:53 AM,28.9,26.1,89,30.18,5.0,SSE,18.4,21.9,N/A,,Overcast,150,2013-02-09 14:53:00
9:53 AM,28.9,27.0,92,30.17,5.0,SSE,13.8,-,N/A,,Overcast,160,2013-02-09 15:53:00
10:53 AM,30.0,27.0,88,30.16,6.0,SSE,16.1,23.0,N/A,,Overcast,160,2013-02-09 16:53:00
11:53 AM,30.9,28.0,89,30.13,6.0,SSE,18.4,24.2,N/A,,Overcast,150,2013-02-09 17:53:00
12:53 PM,32.0,28.9,88,30.09,5.0,SSE,16.1,23.0,N/A,,Overcast,150,2013-02-09 18:53:00
1:08 PM,32.0,28.4,87,30.06,5.0,SSE,15.0,-,N/A,,Overcast,150,2013-02-09 19:08:00
1:53 PM,34.0,28.9,82,30.05,5.0,SSE,17.3,20.7,N/A,,Haze,150,2013-02-09 19:53:00
2:53 PM,33.1,28.9,85,30.02,5.0,SSE,17.3,21.9,N/A,,Overcast,150,2013-02-09 20:53:00
3:53 PM,33.1,30.0,89,29.99,5.0,SE,13.8,-,N/A,,Overcast,140,2013-02-09 21:53:00
4:53 PM,33.1,28.9,85,29.97,4.0,ESE,10.4,20.7,N/A,,Overcast,120,2013-02-09 22:53:00
5:53 PM,32.0,28.9,88,29.96,5.0,SE,15.0,-,N/A,,Overcast,130,2013-02-09 23:53:00
6:28 PM,30.2,28.4,93,29.94,6.0,SE,11.5,20.7,N/A,,Scattered Clouds,130,2013-02-10 00:28:00
6:53 PM,30.9,28.0,89,29.96,6.0,SE,11.5,-,N/A,,Scattered Clouds,130,2013-02-10 00:53:00
7:53 PM,30.9,28.0,89,29.95,6.0,ESE,11.5,-,N/A,,Clear,120,2013-02-10 01:53:00
8:53 PM,30.9,28.0,89,29.93,7.0,SE,15.0,20.7,N/A,,Mostly Cloudy,130,2013-02-10 02:53:00
9:53 PM,32.0,28.9,88,29.89,7.0,ESE,12.7,18.4,N/A,,Scattered Clouds,120,2013-02-10 03:53:00
10:53 PM,32.0,28.9,88,29.90,7.0,SE,10.4,-,N/A,,Scattered Clouds,130,2013-02-10 04:53:00
11:53 PM,32.0,30.9,96,29.87,4.0,ESE,10.4,-,0.06,,Overcast,120,2013-02-10 05:53:00